星链-4044 (STARLINK-4044 )

导读 | 豆包AI

STARLINK-4044是美国SpaceX公司星链星座中的一颗低轨互联网卫星,于2022年5月18日发射入轨,为星链全球组网补充卫星资源。该卫星运行在近地轨道,属于星链通信星座的组成部分,可提供全球范围高速低延迟的互联网接入服务,覆盖传统基础设施难以到达的偏远区域。星链项目目前已是全球规模最大的卫星星座,截至2026年已有超九千颗卫星在轨,持续为全球用户和特种通信需求提供卫星互联网支持。

Basic Information
目录编号:
52662
目录名称:
STARLINK-4044
国际标识:
2022-053G
轨道中心:
EARTH
卫星名称:
星链-4044
卫星全名:
星链-4044 (STARLINK-4044 )
卫星状态:
在轨 (已飞行1397 天)
发射日期:
2022-05-18 UTC
国别 :
美国 (US)
星等 :
--
Orbit Information
数据来源 国际轨道数据 AOE轨道数据
星历时间 2026-03-15T04:14:15+0800
8小时前
查看轨道信息
2026-03-12T16:00:00+0800
2天前
查看轨道信息
半长轴 6917.873km 6917.911km
偏心率 0.0001315 0.0001037
轨道倾角 53.216° 53.215°
近地点辐角 94.107° 166.402°
升交点赤经 130.988° 142.256°
平近点角 266.007° 232.941°
近地点 538.826km 539.056km
远地点 540.646km 540.492km
周期 95.437分钟 95.438分钟
每日圈数 15.088425 15.088302
Detailed Information
固有亮度:
5
最大亮度:
2.5
卫星平台:
Starlink v1.5
覆盖范围:
全球
运营商:
太空探索技术公司
运营商所在国:
美国
制造商(研发单位):
太空探索技术公司
制造商所在国:
美国
使用方式:
暂无
Satellite Introduction
星链(Starlink)计划是由太空探索技术公司(SpaceX)提出的一个巨型低轨卫星互联网星座项目,计划在2019年至2024年间在太空搭建由约1.2万颗卫星组成的“星链”网络,其中1584颗将部署在地球上空550千米处的近地轨道,并从2020年开始工作。该卫星仍在工作。
2D Orbit Map
3D Orbit Map
Orbit Altitude Analysis Chart
Orbit Inclination Analysis Chart
Orbit Comprehensive Analysis Chart
View Comprehensive Chart